Miscellaneous Local Product
Issued by NWS Hastings, NE

Home | Current Version | Previous Version | Graphics & Text | Print | Product List | Glossary On
Versions: 1 2 3 4 5 6 7 8 9 10 11 12 13 14 15 16 17 18 19 20 21 22 23 24 25 26 27 28 29 30 31 32 33 34 35 36 37 38 39 40 41 42 43 44 45 46 47 48 49 50
000
AXUS43 KGID 221002
MISGRI

GID CWA HOURLY WEATHER ROUNDUP
NATIONAL WEATHER SERVICE HASTINGS NE
400 AM CST MON DEC 22 2014

NOTE: "FAIR" INDICATES FEW OR NO CLOUDS BELOW 12,000 FEET WITH NO
SIGNIFICANT WEATHER AND/OR OBSTRUCTIONS TO VISIBILITY.

...SOUTH CENTRAL NEBRASKA...

CITY           SKY/WX    TMP DP  RH WIND       PRES   REMARKS
GRAND ISLAND   CLOUDY    42  40  92 SW9       29.50F
HASTINGS       CLOUDY    42  39  89 S6        29.49F FOG
KEARNEY        CLOUDY    36  34  93 SW8       29.50S WCI  29
ORD            NOT AVBL
YORK           CLOUDY    41  41 100 S12       29.52F FOG
AURORA         CLOUDY    42  42 100 S8        29.49F FOG
LEXINGTON      MOCLDY    36  33  89 W14       29.52R WCI  27
HOLDREGE       CLOUDY    34  33  96 W5        29.50S FOG     WCI  30
HEBRON         LGT RAIN  43  41  93 S12       29.53F

...NEBRASKA PANHANDLE...

CITY           SKY/WX    TMP DP  RH WIND       PRES   REMARKS
CHADRON        CLOUDY    38  30  73 NW30G37   29.61R WCI  26
ALLIANCE       CLOUDY    36  29  75 NW23G37   29.59S WCI  24
SCOTTSBLUFF    CLOUDY    36  28  73 W13       29.67R WCI  27
SIDNEY         MOCLDY    34  26  72 NW14      29.64R WCI  25

...WESTERN AND NORTH CENTRAL NEBRASKA...

CITY           SKY/WX    TMP DP  RH WIND       PRES   REMARKS
VALENTINE      MIX PCPN  37  35  92 NW15      29.50S WCI  28
AINSWORTH      CLOUDY    37  36  95 NW14      29.48S FOG     WCI  28
ONEILL         CLOUDY    37  37  98 SW7       29.46F WCI  32
BROKEN BOW     MOCLDY    38  33  82 NW15      29.50R WCI  29
IMPERIAL       MOCLDY    39  28  64 NW20G29   29.59R WCI  29
NORTH PLATTE   CLOUDY    33  30  88 W7        29.55R WCI  27
MCCOOK         CLOUDY    36  31  82 NW9       29.56R WCI  29

...EASTERN NEBRASKA...

CITY           SKY/WX    TMP DP  RH WIND       PRES   REMARKS
NORFOLK        LGT RAIN  43  41  93 S13       29.48F FOG
SO SIOUX CITY  LGT RAIN  43  41  93 SE12      29.53F FOG
TEKAMAH        LGT RAIN  44  42  93 S15       29.55F
COLUMBUS       CLOUDY    43  39  87 S12       29.52F
ALBION         CLOUDY    41  38  91 S8        29.49F FOG
OMAHA EPPLEY   LGT RAIN  43  42  97 S17       29.58F
OFFUTT AFB     LGT RAIN  42  41  95 SE10      29.57F FOG
MILLARD        DRIZZLE   44  42  91 S9        29.58F
LINCOLN        LGT RAIN  43  42  97 S12       29.55F FOG
NEBRASKA CITY  DRIZZLE   42  42 100 S12       29.58F
BEATRICE       CLOUDY    42  41  97 S10       29.56F
FALLS CITY     LGT RAIN  42  40  92 SE12      29.60F

...NORTHERN KANSAS...

CITY           SKY/WX    TMP DP  RH WIND       PRES   REMARKS
GOODLAND       CLOUDY    37  29  72 NW16      29.62R WCI  28
HILL CITY      CLOUDY    42  33  70 NW15      29.54R
NORTON         PTSUNNY   37  30  75 W13       29.52S WCI  29
PHILLIPSBURG   CLEAR     37  37 100 W10       29.52F WCI  30
SMITH CENTER   MOCLDY    37  37 100 SW6       29.51F FOG     WCI  33
BELOIT         CLOUDY    45  45 100 S10       29.52F
HAYS           CLOUDY    41  34  75 W8        29.53S
RUSSELL        CLOUDY    44  43  96 S12       29.51F
CONCORDIA      LGT RAIN  43  43 100 S13       29.53F FOG
SALINA         CLOUDY    45  43  93 S8        29.56F FOG
TOPEKA         CLOUDY    45  42  89 SE10      29.62F



USA.gov is the U.S. government's official web portal to all federal, state and local government web resources and services.